GFSMW_850_thetae_021.txt.gz
Theta_e
356 356 356 356 360 358 358 355 348 342 341 342 342 349 348 343 343 350 348 347 346 348 348 346 347 345 343 346 347 346 344 345 345 345 345 342 342 343 348 348 345 345 345
357 357 358 359 359 358 354 351 343 341 340 339 337 350 349 351 346 350 348 349 348 346 345 343 343 343 342 343 344 346 344 343 343 344 343 341 338 340 347 344 344 346 344
357 358 358 356 355 356 353 351 345 341 340 337 338 345 346 344 349 349 346 346 346 345 344 344 342 340 341 341 342 341 340 341 342 343 343 340 338 338 345 348 345 349 347
357 358 355 354 354 353 352 351 349 342 338 337 339 348 345 347 347 344 345 343 345 342 343 341 341 340 341 339 341 340 342 340 339 344 345 342 342 344 342 347 347 346 345
354 352 352 353 354 349 348 349 342 338 339 339 347 346 347 344 345 344 344 344 343 345 341 343 341 341 340 339 339 341 341 342 342 341 340 344 342 343 344 346 340 346 347
350 349 352 352 349 349 347 347 347 339 342 340 346 347 340 341 342 341 344 342 342 342 341 342 340 342 339 339 337 340 341 340 340 338 338 341 342 341 344 341 340 340 343
348 351 351 350 349 349 345 346 340 339 347 347 350 346 344 337 345 340 342 342 342 343 340 341 340 340 338 338 338 339 340 340 338 337 337 340 341 341 342 342 340 342 342
347 349 349 349 349 347 347 349 350 350 349 349 347 342 340 344 343 343 342 344 344 342 341 343 343 344 342 340 341 340 339 341 338 336 337 338 338 342 341 341 340 342 342
345 348 348 348 348 347 348 348 350 351 351 349 346 343 342 337 341 343 340 342 341 340 339 342 343 343 342 342 341 342 341 339 339 338 338 339 339 342 342 341 342 341 341
346 347 348 348 347 348 348 350 350 351 350 347 346 345 344 344 344 343 343 341 342 340 338 338 339 343 341 341 341 339 339 340 340 340 340 339 338 340 340 342 343 342 341
348 347 348 348 347 349 349 350 351 350 347 347 345 345 344 343 343 343 342 341 340 340 341 338 338 338 340 341 340 339 339 340 339 336 338 338 337 338 342 343 343 341 341
349 349 349 348 348 349 349 349 349 347 347 347 346 345 344 344 343 343 342 340 336 340 338 341 341 339 338 338 338 337 342 343 340 341 342 343 343 339 338 339 340 341 339
350 350 350 349 348 349 346 347 345 346 346 347 347 345 345 346 343 343 339 338 339 337 342 339 338 338 338 338 338 338 337 337 338 339 337 341 339 339 339 339 338 338 338
351 351 352 351 350 345 345 348 345 345 346 346 346 346 345 346 343 340 338 340 339 335 334 339 341 337 338 336 336 336 336 336 336 336 336 336 336 335 336 336 335 335 335
350 353 352 350 341 337 344 348 347 346 347 347 346 346 346 346 344 341 338 337 337 333 330 333 338 336 333 333 333 333 334 334 334 334 335 334 334 333 333 333 333 334 333
350 353 349 346 346 348 350 348 348 348 347 346 346 346 346 346 344 341 337 340 333 332 329 329 330 331 330 331 331 334 332 332 332 331 331 331 331 331 331 331 331 331 331
350 352 347 347 349 350 350 350 349 349 347 347 348 347 347 346 345 342 341 337 332 332 329 326 329 329 327 327 329 330 330 330 330 329 329 328 327 326 326 326 327 328 329
351 349 346 350 351 351 350 349 347 346 348 348 347 347 346 347 346 344 343 337 333 332 330 327 328 327 326 326 326 327 329 329 328 328 325 324 323 322 321 321 322 324 324
351 349 349 350 348 347 346 347 347 347 346 344 338 338 341 343 345 342 342 339 335 332 330 330 330 326 325 324 325 327 327 326 324 324 322 319 317 317 320 319 318 318 318
352 350 346 342 341 341 342 343 342 340 337 334 329 327 328 336 342 343 340 338 336 332 330 330 327 326 325 323 324 325 325 324 321 319 318 318 317 318 321 322 321 319 318
346 343 341 341 338 341 341 340 337 334 329 328 329 329 329 331 339 339 339 337 334 332 330 328 326 326 326 325 324 324 325 324 322 319 320 319 319 318 317 319 319 318 315
340 342 339 335 338 340 338 335 331 329 329 329 329 330 330 332 335 336 336 335 331 331 330 327 324 327 326 325 325 323 323 322 320 318 319 318 318 318 317 317 315 311 312
340 339 335 336 337 336 334 330 329 329 329 329 330 330 331 332 334 333 331 331 329 331 330 328 326 326 325 325 324 323 321 319 317 317 316 317 311 307 304 303 304 308 309
336 334 333 330 334 331 328 328 328 328 328 329 329 331 329 330 331 330 328 327 327 326 326 326 325 325 325 323 321 320 318 317 316 316 314 308 305 307 303 307 307 308 308
332 332 330 327 326 326 327 327 327 327 327 328 327 328 328 328 327 326 325 324 323 324 323 323 323 323 322 321 320 317 315 314 314 309 309 309 309 308 308 307 307 307 307
331 328 325 324 325 324 326 326 326 325 324 323 323 325 325 323 323 323 322 322 321 321 320 320 320 320 319 318 316 315 314 312 307 309 311 309 308 308 308 307 307 306 305

GFSMW_850_thetae_024.txt.gz
Theta_e
356 355 354 354 356 357 356 355 352 350 349 341 341 341 348 348 342 340 341 334 337 346 345 344 344 342 341 344 341 344 344 337 343 346 342 344 345 344 344 342 339 339 343
356 357 356 359 361 361 356 355 355 351 343 340 338 341 346 347 349 345 347 346 344 343 342 342 342 343 343 341 341 342 345 344 345 344 344 342 340 342 343 342 343 343 340
358 358 359 360 359 358 355 354 351 343 342 339 338 338 342 345 344 347 345 346 346 342 340 340 340 340 341 340 340 339 341 343 343 341 341 343 341 342 344 343 343 346 346
357 359 359 358 356 355 355 353 351 346 342 339 338 340 345 342 346 345 345 343 343 345 344 341 340 340 340 340 340 339 340 340 340 339 340 342 344 343 342 344 346 345 344
357 358 358 356 355 354 353 353 347 339 339 338 339 345 343 348 346 345 339 344 342 344 344 342 340 340 340 340 339 339 339 340 341 339 339 342 339 342 341 344 342 343 343
355 355 355 355 354 350 350 350 341 340 338 338 342 347 349 342 339 341 344 343 344 344 340 339 340 340 341 338 340 338 338 340 341 341 341 339 339 341 342 341 339 342 340
352 353 354 354 349 350 348 350 340 339 343 349 349 342 339 340 346 344 344 344 343 342 340 340 341 341 341 339 339 338 338 339 339 339 338 338 337 340 342 340 341 339 342
352 353 353 352 351 348 347 348 340 340 347 347 347 345 343 348 344 344 343 344 341 342 340 341 341 341 342 341 339 338 339 339 339 339 335 337 337 339 342 340 340 339 342
350 352 352 351 350 348 349 350 351 348 347 347 345 343 342 341 340 343 340 339 341 341 340 338 341 341 340 341 341 342 341 339 339 338 337 337 338 338 343 342 341 340 340
348 350 350 350 349 348 349 350 350 349 349 349 345 345 346 344 343 342 340 341 341 341 340 338 340 340 341 341 340 341 339 339 341 340 340 340 340 339 340 341 343 342 341
347 350 349 349 349 349 348 350 349 350 351 349 347 344 346 345 342 341 340 341 341 340 342 340 341 338 340 341 340 341 340 340 340 338 340 340 339 337 337 337 337 340 339
347 348 349 349 349 350 350 350 351 350 347 349 347 347 345 343 341 341 338 335 339 340 339 339 338 338 339 338 337 337 339 337 338 338 339 339 339 339 339 340 340 341 340
349 349 350 349 349 350 350 349 349 348 348 349 348 347 346 345 341 341 339 339 341 337 337 337 336 337 338 339 336 337 337 337 338 338 338 338 337 338 342 339 338 338 338
351 350 350 349 350 349 346 347 346 346 347 349 348 347 346 344 342 341 339 337 340 337 333 337 335 334 334 338 336 335 335 335 335 335 335 335 335 335 335 335 335 334 334
352 353 351 352 350 347 339 346 346 346 347 348 347 346 344 344 343 342 341 334 334 331 327 335 334 333 331 332 337 336 333 333 332 332 332 332 332 332 333 333 334 333 333
353 354 354 351 346 341 346 348 347 348 348 348 347 346 346 344 343 342 340 338 332 330 333 330 329 328 329 330 331 334 335 332 331 330 330 330 329 330 331 331 331 331 331
353 354 352 346 341 346 351 348 350 350 348 348 344 347 345 344 343 344 341 339 333 333 329 328 326 327 325 326 327 331 331 330 329 328 327 326 326 325 325 326 327 328 329
353 353 348 347 349 350 351 351 350 349 350 348 346 347 348 346 345 345 343 341 337 333 330 327 324 326 325 326 326 328 328 327 326 326 326 324 323 321 320 320 321 321 320
355 349 349 352 352 352 351 350 348 348 347 346 344 341 341 343 344 344 343 341 340 334 332 329 328 325 325 324 327 327 326 325 324 323 322 320 318 320 321 321 319 318 318
352 349 350 351 349 348 345 347 346 345 344 342 340 330 328 331 340 341 340 339 338 334 332 330 327 326 325 324 326 326 325 324 322 319 318 318 318 321 323 322 321 319 318
351 350 349 348 346 343 343 344 342 340 338 331 328 329 330 334 337 337 337 336 336 333 333 330 327 326 327 326 325 325 325 324 322 321 320 318 319 319 319 319 320 317 313
345 344 342 340 339 338 339 340 338 333 329 329 329 330 330 331 337 335 335 335 333 332 331 327 329 327 326 326 325 324 324 324 322 321 320 320 319 318 317 317 315 312 312
341 340 338 337 336 336 336 334 330 329 329 329 329 330 330 331 333 333 334 333 331 331 330 328 328 327 327 326 326 325 324 323 322 320 318 318 313 311 304 303 306 309 309
338 336 334 334 332 331 331 329 328 328 328 328 329 330 330 330 331 331 331 330 329 328 327 326 326 325 325 325 323 322 321 320 317 317 314 309 309 307 307 308 308 308 309
335 335 334 331 331 329 328 327 327 327 328 328 328 328 328 328 328 328 327 327 326 325 325 324 323 323 323 322 321 320 318 316 314 310 310 310 310 310 309 308 308 308 308
333 332 332 332 327 326 327 326 326 326 325 324 325 325 325 325 324 324 324 324 323 323 322 322 321 321 320 320 319 317 316 315 311 310 311 311 310 309 309 308 308 307 306

GFSMW_850_thetae_027.txt.gz
Theta_e
353 352 353 354 353 353 354 353 352 351 343 342 339 339 342 346 345 345 342 340 341 341 341 340 340 341 342 343 341 341 342 341 341 342 341 341 344 344 343 342 344 343 342
354 353 354 354 354 356 356 354 352 350 346 342 338 338 341 343 345 344 344 345 343 342 342 340 340 339 340 340 341 340 341 340 341 341 336 335 342 342 340 341 344 342 339
355 355 357 358 358 356 358 356 353 349 344 340 339 338 340 343 343 345 344 344 344 343 343 343 342 340 339 339 339 339 340 340 341 341 343 341 339 339 341 343 344 341 341
357 356 358 358 358 354 349 350 349 348 342 339 338 338 342 343 345 346 344 343 342 342 345 343 341 341 340 339 339 339 339 339 339 341 342 340 339 340 341 342 344 341 343
357 358 357 356 356 353 350 352 350 339 341 340 338 338 343 347 345 345 342 343 344 343 343 339 339 340 341 341 338 339 339 339 339 340 340 339 339 342 341 341 341 341 344
358 358 358 357 354 354 353 352 341 337 338 339 341 347 346 345 340 341 342 342 342 343 341 340 341 340 341 340 339 339 338 338 339 340 340 339 339 340 338 341 339 338 339
358 358 357 353 354 352 348 346 341 338 338 342 348 347 338 345 346 345 339 342 341 341 340 340 341 341 341 340 338 338 338 338 339 340 340 339 338 339 338 340 340 338 339
355 355 355 354 353 349 344 343 338 339 342 347 346 343 346 346 345 343 340 340 341 340 339 339 341 340 340 341 341 340 339 338 338 338 338 336 337 337 338 341 340 339 340
353 353 353 354 350 348 344 340 338 340 346 346 344 339 340 341 339 341 340 340 339 340 338 339 340 340 340 341 340 341 341 340 339 339 338 337 336 337 338 341 341 340 339
352 352 352 351 350 348 345 346 346 345 346 347 341 342 342 341 341 341 339 336 340 341 340 340 338 340 341 341 341 341 341 340 340 341 340 339 339 339 339 341 341 340 339
352 352 352 350 350 348 350 350 347 349 349 346 345 344 345 343 340 340 339 338 339 335 341 339 338 337 338 337 337 337 338 339 339 338 340 340 339 339 339 339 338 337 340
351 350 350 349 349 349 348 345 344 345 348 346 344 345 344 343 339 339 337 339 339 335 337 336 334 335 335 337 336 336 336 337 336 338 338 337 338 338 338 337 337 336 337
350 349 349 349 348 349 344 333 339 347 347 346 343 345 345 344 342 338 334 339 338 335 332 333 333 333 332 335 335 336 336 336 335 335 336 336 335 336 337 336 337 337 337
349 349 349 348 350 350 346 341 348 348 347 346 345 345 344 344 343 339 338 336 335 332 333 332 331 331 330 331 332 333 333 334 334 334 334 334 334 334 334 334 335 334 334
351 349 349 348 349 348 346 347 348 346 346 346 345 345 344 344 342 341 338 333 332 329 332 329 330 329 329 328 328 330 331 331 331 331 331 331 331 332 333 333 333 332 333
352 350 349 349 348 346 344 347 346 347 347 347 346 346 345 345 344 342 341 337 332 335 329 326 328 326 327 329 329 328 330 330 328 328 328 328 329 329 329 330 330 331 330
353 352 350 350 348 340 346 349 347 348 348 346 347 346 346 345 343 342 341 340 335 337 329 325 326 325 325 326 327 327 326 326 327 326 326 326 324 323 324 326 327 327 327
354 353 352 351 339 347 349 349 348 349 349 347 345 344 345 345 344 343 343 340 340 334 331 326 326 325 325 326 327 327 326 326 326 326 324 323 321 320 319 319 320 320 320
354 353 348 341 348 351 350 349 350 349 348 344 343 344 342 342 345 344 343 343 340 336 333 330 326 325 325 327 328 327 325 324 324 323 320 320 320 321 322 321 320 319 318
352 348 347 348 350 347 350 350 349 347 345 344 343 338 328 328 342 343 343 340 339 335 333 331 328 325 324 325 326 326 325 323 322 320 320 318 319 322 322 322 321 319 313
349 349 349 350 348 346 348 347 346 345 344 341 332 329 328 329 335 338 338 338 336 334 333 332 329 326 325 325 325 325 325 324 324 323 322 320 320 319 320 320 320 314 313
349 349 347 345 344 344 343 343 344 342 337 330 329 329 329 331 336 335 335 335 334 334 332 332 328 327 326 325 325 325 325 324 322 322 322 320 320 319 317 317 315 313 311
346 344 343 341 338 339 340 341 339 333 329 329 329 329 330 330 333 331 333 334 333 333 331 330 328 327 326 326 326 325 324 323 322 321 319 316 312 308 304 307 309 309 309
340 339 339 337 336 338 337 334 331 329 328 328 328 329 329 329 330 330 330 330 330 329 328 327 327 326 325 325 324 322 322 322 319 318 315 310 309 309 308 308 307 307 308
337 337 336 336 335 333 330 328 327 327 327 327 328 328 328 328 328 328 327 326 326 326 326 325 324 324 323 322 321 320 319 317 315 311 310 310 309 310 309 308 308 307 307
336 334 333 331 330 328 327 326 326 325 325 326 326 326 325 324 324 324 324 324 324 324 323 323 322 322 321 321 320 319 317 316 312 311 311 311 309 308 308 307 307 307 307

GFSMW_850_thetae_030.txt.gz
Theta_e
351 351 351 351 351 351 352 352 351 348 347 343 341 340 339 342 341 342 342 343 342 343 342 342 339 338 339 342 342 341 340 340 341 341 337 340 341 341 339 341 343 343 341
350 351 352 352 352 352 352 352 350 348 345 342 339 339 340 343 345 343 344 344 344 343 341 340 341 342 339 339 340 341 341 341 341 341 340 341 339 339 342 342 343 343 342
352 352 353 353 354 353 354 353 353 349 343 339 338 338 340 343 344 344 344 343 342 341 342 343 343 341 340 339 339 340 340 341 340 340 340 338 334 335 339 339 340 340 341
352 354 355 354 354 356 354 354 351 345 342 339 339 338 341 344 345 345 345 343 342 342 343 343 339 339 339 339 339 339 339 339 340 340 341 338 338 338 340 340 338 341 344
354 355 356 356 358 355 346 347 348 342 341 339 338 338 342 346 345 344 341 342 341 342 341 340 340 340 340 339 339 338 339 339 339 339 340 341 342 340 340 337 340 341 342
357 356 358 357 355 350 346 346 341 339 340 339 338 342 345 346 342 341 342 340 341 340 340 338 340 340 340 339 339 339 339 338 338 339 339 340 340 339 339 340 338 339 338
357 358 357 356 352 346 347 350 339 338 338 339 343 347 340 342 344 344 340 341 339 338 337 337 339 340 339 339 338 338 338 338 339 339 340 340 340 339 339 339 337 339 338
357 357 357 356 350 350 350 346 339 338 341 347 348 341 344 344 343 341 339 338 338 337 337 339 340 340 339 340 339 339 338 338 338 339 338 339 339 338 339 339 338 339 339
356 358 356 353 351 351 347 344 342 341 346 348 344 338 341 341 340 340 339 337 334 337 339 338 340 340 339 339 339 339 340 338 338 338 338 337 336 337 338 338 339 339 339
354 355 354 353 352 348 345 345 342 342 345 344 341 340 340 338 340 339 335 335 333 336 338 337 337 339 339 339 340 340 340 340 340 340 339 339 338 337 337 338 340 339 339
354 353 351 351 348 347 346 345 344 345 344 345 341 343 342 342 338 337 333 334 329 334 337 334 335 337 336 336 336 337 337 337 337 339 340 340 339 339 339 339 339 340 338
350 352 351 350 348 347 348 346 342 333 344 345 343 344 343 342 338 334 330 330 327 326 331 333 334 333 336 336 336 335 336 336 335 335 336 336 338 338 338 337 337 336 336
344 350 351 348 348 348 346 337 339 333 343 346 344 343 343 343 339 335 332 330 327 327 330 331 331 330 332 334 334 334 335 335 335 335 335 334 335 335 335 335 336 336 337
341 346 350 347 348 348 341 334 334 344 346 346 343 344 343 343 342 339 335 331 327 324 328 329 329 328 328 331 331 332 332 331 331 332 332 333 333 333 334 334 334 334 334
335 344 348 348 348 348 343 339 346 347 347 346 342 344 343 344 341 339 338 333 329 326 327 328 327 327 327 326 327 328 328 329 329 330 330 330 331 332 333 333 332 332 332
350 348 349 348 348 348 344 346 348 347 347 346 345 345 345 344 343 341 340 337 332 330 326 326 326 326 326 325 326 326 326 326 327 328 327 326 326 326 327 328 329 329 329
350 349 348 349 348 347 346 346 346 347 346 346 346 346 345 345 344 342 341 339 339 336 329 325 326 325 325 325 326 326 325 325 325 325 325 322 321 322 324 324 325 325 326
348 348 348 347 346 344 347 347 346 347 347 346 344 346 345 345 344 342 342 340 340 338 332 326 326 325 326 325 326 326 325 325 325 324 323 321 320 320 319 319 319 319 319
339 348 349 347 342 345 348 347 346 346 342 342 343 343 343 345 345 343 342 342 340 338 334 330 325 325 326 326 327 326 325 323 324 321 320 320 320 322 322 321 319 318 315
345 350 349 344 341 343 343 341 340 341 341 342 342 342 339 331 337 341 341 341 338 336 333 333 327 325 325 326 326 326 325 324 322 321 319 319 320 321 321 320 319 314 311
349 350 346 342 342 342 342 335 336 340 340 342 341 335 329 328 334 340 338 339 336 334 333 333 331 326 324 325 325 325 325 325 323 322 321 319 319 320 320 320 319 314 313
349 348 347 347 345 345 342 337 338 342 342 340 333 329 328 328 336 335 336 334 334 334 333 331 330 327 325 324 324 325 324 324 323 322 322 320 319 318 317 317 316 313 312
347 347 347 345 343 342 342 343 342 341 338 332 328 328 329 331 334 336 332 333 332 333 333 331 328 327 326 324 325 323 323 323 322 322 318 315 311 306 308 309 309 309 309
343 342 341 338 337 337 338 338 337 332 330 328 328 328 329 329 330 330 332 331 333 332 329 328 327 326 325 325 324 323 322 321 320 318 312 309 309 308 308 308 307 305 308
339 338 337 336 336 334 333 332 330 328 327 327 328 328 328 329 329 328 328 329 329 328 327 326 326 325 324 323 321 320 318 318 315 310 310 309 309 309 309 308 307 307 307
337 335 333 332 331 329 329 328 326 326 326 327 326 326 326 326 326 326 326 325 324 324 324 323 323 323 322 322 321 320 318 315 311 310 311 310 309 308 308 307 306 307 307

GFSMW_850_thetae_033.txt.gz
Theta_e
351 352 351 351 351 353 352 351 351 349 347 344 341 336 337 337 341 341 342 342 343 343 343 343 343 340 339 339 339 340 341 340 340 340 341 338 336 340 337 338 339 338 342
351 352 351 350 350 352 351 352 349 348 345 341 341 340 339 340 341 344 343 343 343 343 341 341 341 341 342 341 340 339 339 339 340 340 341 340 338 339 340 341 339 340 340
352 352 351 350 351 351 351 351 349 346 341 338 338 339 340 342 343 344 344 343 342 341 340 341 341 341 340 339 339 339 339 339 340 341 341 339 338 339 338 336 338 341 340
351 350 351 351 351 352 352 351 349 343 340 338 337 338 341 343 345 344 344 343 342 341 341 340 340 339 338 339 339 340 339 339 339 341 340 340 338 337 336 340 339 339 339
350 351 351 352 353 353 355 349 346 343 340 338 338 339 341 346 345 343 342 342 341 340 339 339 337 339 339 340 339 339 338 339 339 339 340 340 339 338 339 337 338 339 340
357 353 354 354 355 354 347 345 341 339 340 338 338 339 344 345 343 341 343 339 340 338 336 336 338 339 339 339 338 338 337 339 338 339 339 339 340 340 340 340 339 337 339
350 332 330 355 355 350 347 345 337 338 339 338 340 346 343 341 343 342 340 339 337 335 336 338 339 339 339 339 338 338 337 337 338 338 338 339 340 341 340 339 339 338 337
332 342 344 353 353 348 348 343 337 337 338 341 344 343 339 343 341 339 337 333 334 336 337 339 340 338 339 340 339 339 338 338 338 339 339 340 340 340 339 339 339 337 338
336 345 350 354 350 349 348 343 338 338 340 346 343 340 339 336 338 338 335 333 333 340 339 336 339 340 340 340 339 339 339 338 338 338 337 338 337 336 336 338 338 338 338
343 344 352 353 350 350 346 341 342 339 341 345 341 338 336 338 336 336 332 334 332 333 331 335 336 337 337 338 338 339 339 339 340 339 339 339 338 336 337 338 337 338 339
347 350 352 352 351 348 344 340 342 340 341 344 339 341 339 340 337 331 331 329 325 326 331 332 334 336 336 335 335 335 336 336 337 339 339 339 339 339 339 338 338 340 338
350 352 351 350 349 346 343 343 341 338 332 345 342 343 342 341 336 332 330 328 324 328 330 330 331 334 335 335 335 335 335 335 335 335 335 335 338 338 338 338 338 338 338
352 353 352 350 348 346 344 343 343 338 332 345 344 343 342 342 338 334 332 328 325 326 328 328 327 330 332 332 333 333 333 334 334 334 334 334 334 335 335 336 337 337 336
349 351 352 350 347 346 337 334 341 338 332 344 345 342 342 342 341 338 334 331 327 324 327 327 327 327 328 329 330 329 329 329 330 330 331 332 333 333 333 333 334 334 335
335 345 349 350 347 347 342 331 332 333 340 340 344 341 342 342 341 340 338 334 330 326 324 326 325 326 326 326 327 327 327 328 328 329 330 330 331 331 332 331 332 331 332
335 335 343 344 347 347 347 335 340 344 345 343 342 342 344 344 342 340 340 337 333 331 326 324 325 326 325 326 326 325 325 325 327 326 325 324 325 325 326 326 327 328 328
343 337 335 333 344 345 345 338 344 346 346 346 345 344 343 342 341 340 340 338 337 335 331 326 325 325 325 326 326 325 325 325 325 324 320 320 321 321 321 321 322 323 324
341 347 338 337 345 336 343 339 344 345 345 345 345 344 341 342 341 339 341 340 338 337 333 330 326 325 325 326 327 325 324 324 324 323 320 321 321 321 320 319 320 319 320
341 347 340 345 346 344 344 344 342 343 343 341 336 341 340 340 340 341 341 340 339 339 335 331 326 325 325 326 327 326 324 323 323 321 320 320 321 321 321 320 319 317 317
334 336 347 348 345 346 345 342 337 335 333 335 339 340 339 340 341 341 340 340 338 336 335 332 328 325 325 326 326 326 325 322 322 322 320 319 320 321 321 320 318 312 312
346 345 347 346 345 343 344 338 337 332 331 333 338 340 338 331 330 337 338 339 337 336 333 332 331 328 325 325 325 326 325 325 323 322 323 321 320 319 319 319 319 315 312
348 347 346 344 344 343 341 339 335 334 332 335 340 337 331 330 332 337 338 335 334 334 332 332 330 330 327 324 325 325 325 325 323 321 322 320 318 317 317 316 315 313 312
346 346 346 346 344 343 343 339 336 336 339 339 334 329 328 331 336 334 333 333 332 331 333 331 330 328 327 326 326 324 324 323 321 321 318 315 310 309 309 307 307 308 308
342 342 340 339 338 339 340 339 338 336 331 329 328 328 328 330 333 333 331 330 331 332 332 330 329 328 327 325 325 324 323 322 319 317 312 307 305 306 308 307 307 306 307
339 337 335 334 335 333 333 333 331 330 328 328 327 328 328 329 330 329 329 330 330 331 329 328 327 326 325 324 322 321 319 318 316 310 309 309 309 309 309 308 307 307 307
336 335 333 332 333 333 331 328 327 327 327 327 327 327 328 328 328 328 327 327 326 326 325 324 323 323 323 321 320 320 319 315 310 310 310 310 309 309 308 307 307 306 306